Wind_Speed
43 44 45 47 48 47 47 48 48 46 42 40 38 36 34 32 29 30 30 25 21 22 23 22 22 21 19 17 15 16 12 10 21 35 35 29 29 27 25 24 22 21 22 22 21 20 19 17 17 17 18 18 18 17 17 17 16 17 19 21 22 21 20
41 43 45 46 47 47 47 48 47 45 43 42 41 38 37 36 35 33 30 26 25 25 24 23 22 20 19 17 15 14 12 7 12 27 33 32 32 32 30 28 26 25 24 24 22 21 20 19 20 20 20 20 19 18 17 17 16 17 18 20 21 21 21
40 42 44 46 46 46 47 47 47 46 45 45 43 42 40 39 38 36 31 27 27 28 25 22 21 19 17 17 15 12 11 9 9 15 23 27 30 34 34 31 29 28 27 26 24 23 22 23 23 23 22 21 20 18 17 15 15 15 15 15 16 17 18
40 42 44 46 46 46 47 47 47 46 46 45 43 42 41 39 38 37 31 26 26 29 26 23 21 20 18 16 15 12 10 11 11 13 15 18 21 25 30 32 32 32 31 29 27 26 24 24 23 22 21 20 19 17 16 15 14 14 13 12 12 13 14
40 42 44 46 45 46 47 48 48 47 46 45 43 43 42 41 38 37 34 28 24 26 27 24 21 20 20 18 16 13 12 12 13 14 15 15 15 17 21 26 30 33 34 32 30 29 27 25 23 22 21 19 18 16 16 17 16 15 14 14 13 13 14
39 41 43 45 45 44 46 47 47 47 47 46 45 44 44 43 40 38 37 32 25 23 25 25 23 21 20 19 17 16 16 16 16 15 15 15 15 17 18 19 21 28 35 35 32 31 29 27 24 23 21 20 18 18 18 18 18 18 18 17 15 15 15
39 40 42 45 45 45 46 47 47 46 46 46 45 45 44 44 43 40 38 36 31 26 24 25 25 23 21 19 18 17 17 17 18 18 16 15 15 17 18 17 16 21 31 34 32 30 28 26 25 24 23 21 21 21 20 19 19 20 20 20 19 17 16
38 40 41 44 46 46 46 48 48 46 46 46 45 44 43 42 42 42 40 39 37 33 28 25 25 24 22 20 19 18 18 17 18 18 17 16 16 17 17 17 16 17 23 29 31 29 27 25 25 26 25 24 23 23 21 19 19 20 21 23 23 21 20
39 38 39 41 45 47 47 48 50 49 48 47 45 44 43 42 42 43 43 41 39 37 34 29 26 24 23 21 20 20 18 17 17 17 17 17 18 18 18 17 17 17 18 22 25 26 27 26 27 28 28 26 23 23 22 21 22 22 22 22 23 24 23
39 38 38 40 45 48 48 49 51 51 50 49 47 45 44 44 43 43 43 42 41 40 38 35 31 28 25 23 21 21 20 19 17 17 17 16 17 18 18 18 17 18 18 19 21 23 25 27 28 29 29 26 23 23 23 24 24 24 23 22 23 24 25
38 38 37 40 44 47 49 49 51 52 52 50 49 47 46 45 44 43 43 43 42 41 40 38 36 33 31 29 27 26 25 24 22 20 19 18 17 18 19 19 19 19 19 20 21 22 23 25 26 27 26 24 23 23 25 26 27 26 24 23 23 24 26
37 37 37 38 42 45 47 48 49 51 52 51 50 48 47 46 44 43 43 44 43 41 40 39 38 37 36 34 33 32 32 32 31 29 26 24 23 22 21 21 21 21 21 22 22 21 21 23 24 24 23 23 23 24 25 26 27 27 26 25 25 24 25
39 39 38 38 39 42 45 46 47 49 50 51 50 50 48 47 46 43 43 44 44 42 42 40 38 38 38 37 35 34 34 35 35 35 33 32 30 28 26 25 24 23 23 24 21 20 21 23 23 23 23 24 24 24 24 24 24 25 25 25 24 24 23
42 41 40 38 37 39 42 44 45 47 48 49 50 50 49 48 48 46 44 44 45 44 43 41 39 38 38 38 36 35 34 33 34 34 34 33 32 31 30 29 29 27 27 26 23 20 22 23 23 23 23 24 24 23 22 23 23 24 24 23 22 22 22
42 42 41 39 37 37 39 41 44 45 46 47 48 48 48 49 48 47 46 44 45 44 43 40 39 38 37 36 34 33 32 31 31 31 31 31 31 32 32 32 32 32 31 30 28 25 23 23 23 23 23 23 23 22 21 22 23 23 23 22 22 21 20
39 41 41 40 39 38 38 39 42 44 44 45 46 46 47 48 48 48 46 44 43 43 41 39 38 37 36 34 32 30 30 30 29 29 29 30 30 30 31 32 32 33 34 33 32 30 27 24 24 24 25 25 24 23 21 22 23 23 22 21 21 20 19
34 37 41 42 40 40 40 40 40 43 44 44 45 46 47 48 48 48 47 45 43 42 41 39 37 36 34 33 31 30 30 30 30 30 30 30 30 29 29 30 30 31 32 32 32 31 29 26 25 26 27 27 27 25 23 23 24 24 22 21 20 19 19
33 33 36 41 42 42 42 41 40 41 42 43 45 46 47 48 48 49 48 48 47 45 43 41 38 35 33 32 32 32 32 31 31 31 31 30 30 30 30 29 29 28 29 29 30 30 30 28 27 27 28 29 28 27 25 24 24 23 21 20 21 20 19
34 33 32 35 41 43 43 42 42 42 42 43 44 46 48 48 49 49 49 49 49 47 45 44 43 40 37 34 33 34 34 34 33 33 32 31 31 31 31 30 29 28 29 29 29 29 30 30 29 30 31 31 31 30 28 26 25 23 21 20 21 21 20
35 35 33 31 34 41 45 45 45 46 46 46 47 48 49 49 49 49 49 48 48 47 46 46 45 43 41 39 37 36 36 37 36 35 33 31 31 32 32 31 29 28 28 29 30 30 30 31 31 32 32 32 32 32 31 29 28 27 26 23 21 21 22
36 36 35 32 30 36 43 45 44 44 46 49 49 49 49 48 47 47 47 47 46 46 45 45 44 43 42 41 40 38 38 38 38 37 35 33 32 32 32 32 30 29 28 28 28 29 30 31 32 33 33 33 33 34 33 31 29 28 28 27 24 23 23
38 37 36 35 32 32 36 39 40 39 40 44 46 46 46 45 44 44 45 47 47 46 45 44 44 43 42 41 41 41 40 40 39 38 37 35 33 32 33 33 32 31 30 30 29 29 29 31 32 33 34 34 35 35 35 33 31 29 27 27 25 24 24
38 38 37 36 35 33 33 35 37 38 38 41 42 42 42 42 42 42 42 43 45 46 45 45 44 43 42 42 41 41 41 41 41 39 39 38 37 36 35 34 34 33 32 31 31 30 30 31 31 33 34 35 36 36 36 35 33 31 29 28 26 26 26
32 36 37 37 38 37 36 36 36 37 40 43 44 43 41 40 40 40 39 39 40 41 42 44 44 43 42 40 39 38 39 41 41 41 41 40 40 39 37 36 36 35 34 32 31 31 31 30 31 33 34 35 36 37 37 37 35 34 32 30 29 29 28
21 27 32 34 36 38 39 39 39 38 38 41 43 44 42 40 39 38 38 38 39 40 41 41 42 42 42 41 38 37 38 38 39 42 44 44 43 42 40 39 38 38 37 36 34 33 33 32 31 32 33 35 37 38 38 38 38 37 35 34 33 32 31
16 18 22 25 28 32 34 36 39 40 39 39 41 42 43 42 41 39 38 38 39 40 41 42 43 44 44 44 43 43 42 41 40 41 43 44 45 45 44 43 41 41 40 39 38 37 37 36 35 34 34 35 37 38 39 40 40 39 38 37 36 35 34
14 16 17 19 21 24 27 29 32 35 37 38 39 40 42 44 43 41 39 38 39 40 40 42 43 43 44 45 46 47 48 47 45 44 43 43 45 46 47 47 47 47 46 45 43 42 41 40 39 38 37 37 38 38 39 40 40 40 40 39 38 37 36
13 14 16 18 19 21 23 24 26 29 31 33 35 37 39 42 43 43 41 39 39 40 40 40 40 41 42 44 45 46 46 45 45 45 45 46 46 47 48 50 50 52 52 51 48 46 44 43 42 41 41 41 41 40 40 40 40 40 41 40 39 38 38
12 14 15 17 19 20 22 23 25 27 28 29 31 34 36 38 40 41 42 42 41 41 41 41 40 40 41 42 43 44 44 43 41 42 43 45 46 47 49 51 52 53 54 54 52 49 47 46 45 44 44 44 44 44 43 43 42 42 42 41 41 40 40
13 15 16 17 19 21 23 24 25 26 27 28 30 31 32 34 35 37 39 41 43 42 42 43 43 43 43 43 43 43 44 45 44 43 43 43 43 43 45 49 51 51 52 53 52 50 49 48 47 46 47 47 47 47 46 45 45 45 44 44 43 42 42
15 16 17 18 20 22 23 25 26 27 28 29 30 31 32 33 33 34 35 37 40 41 42 43 44 46 47 47 46 45 46 46 47 47 46 46 45 44 43 46 49 50 50 50 50 49 49 50 49 49 49 49 49 49 49 48 47 47 46 46 46 46 45
17 18 19 20 21 23 24 26 28 29 29 30 31 31 32 33 34 34 35 36 38 39 40 42 44 46 48 49 48 47 48 48 48 49 49 49 51 50 48 46 48 48 47 48 49 50 50 51 51 51 52 53 52 52 51 51 50 49 49 49 49 49 48
21 22 22 23 23 24 25 27 28 30 31 32 32 33 33 34 34 35 36 37 39 40 41 42 44 46 48 48 48 49 50 51 50 50 49 49 51 53 53 52 52 51 49 47 48 50 51 52 53 53 54 55 55 55 54 54 54 53 53 53 53 53 52
24 25 25 25 26 26 27 28 29 30 32 33 34 35 35 36 36 36 36 37 39 41 42 43 45 47 47 48 49 50 52 53 54 52 50 49 48 49 50 50 51 53 55 54 52 51 52 52 53 54 55 55 55 55 54 54 54 54 54 54 55 55 55
25 26 27 27 28 29 29 30 30 31 32 34 35 36 37 38 39 39 39 39 40 41 43 44 46 48 49 49 50 51 52 53 54 52 51 51 51 49 48 46 44 47 53 57 58 57 55 53 54 55 55 56 57 57 56 56 56 55 55 55 55 55 56
26 27 28 29 29 30 30 31 32 32 33 34 35 37 38 39 41 41 41 41 41 42 43 45 46 48 50 51 52 53 54 54 54 53 52 53 53 51 48 44 41 40 44 50 55 58 58 56 55 55 55 55 55 55 56 56 57 56 56 56 56 56 56
27 28 29 30 30 31 31 32 32 33 33 34 35 36 37 39 41 42 43 44 44 44 44 45 47 48 50 52 53 54 55 55 55 55 55 55 56 55 52 48 45 44 43 45 48 53 55 57 57 56 56 56 56 56 55 56 56 57 57 57 57 57 57
Wind_Direction
203 202 202 204 205 205 207 212 217 219 220 221 223 223 222 219 216 219 223 219 206 204 213 217 216 218 216 216 223 225 227 232 212 201 196 196 197 199 204 208 205 199 197 198 198 196 195 194 195 199 201 202 201 198 198 199 199 200 201 201 203 205 205
202 203 203 203 204 205 208 212 216 218 219 220 220 221 222 221 219 219 219 215 203 200 209 217 217 218 218 215 219 222 218 221 214 206 202 200 197 198 203 207 207 204 201 200 201 200 198 198 199 202 206 207 204 201 199 198 199 203 204 204 205 206 207
200 203 204 204 203 204 207 211 213 215 218 221 221 219 220 221 222 221 221 218 206 199 204 213 215 216 217 215 215 213 202 193 204 211 208 205 202 202 203 204 207 209 206 202 202 203 203 205 205 205 208 211 208 205 202 200 203 208 212 213 212 211 212
199 201 204 206 204 203 206 208 210 213 217 221 223 223 222 222 224 223 223 222 211 202 202 208 211 211 214 214 210 203 191 186 200 212 209 205 205 206 204 204 207 212 211 206 203 205 209 212 215 213 212 214 213 210 205 203 206 210 215 218 217 216 218
198 200 203 206 205 205 206 208 209 212 215 218 221 224 224 225 226 224 222 220 212 205 204 206 207 208 211 213 209 202 195 192 201 212 214 211 209 208 208 209 210 213 214 211 206 206 210 213 218 222 221 219 217 214 211 210 211 213 216 216 214 215 219
198 199 202 205 205 205 207 209 210 212 214 218 221 223 224 225 226 225 223 220 213 209 207 205 206 208 210 213 213 210 206 203 205 211 214 215 216 216 215 215 215 215 216 216 211 208 211 214 216 222 225 223 222 220 219 220 220 222 224 222 219 219 223
197 199 201 203 204 205 206 208 210 212 214 217 221 224 225 227 227 226 225 222 217 214 210 207 208 210 210 212 213 213 212 211 211 213 213 214 220 225 224 220 217 215 214 215 214 213 215 216 216 220 224 224 224 222 220 224 228 229 230 229 228 227 228
195 197 200 202 204 205 206 208 209 211 213 216 220 223 226 229 230 228 227 225 221 217 214 212 211 212 212 213 212 211 211 213 215 217 215 213 218 225 229 226 221 216 211 211 214 217 218 218 217 220 223 223 225 224 222 224 230 233 233 232 234 236 234
191 194 198 201 204 206 207 209 209 211 212 215 219 222 224 227 231 231 230 229 226 222 220 219 218 215 212 212 213 212 212 215 219 223 223 221 222 225 229 228 223 220 215 212 216 219 220 221 221 223 224 223 225 227 225 225 228 231 233 234 236 239 239
191 193 197 199 203 206 207 210 211 212 213 215 217 220 223 226 230 233 234 234 232 228 225 224 224 222 218 217 219 220 220 221 224 229 233 234 234 234 235 233 228 225 222 218 216 216 219 221 223 226 226 226 229 231 229 229 231 232 235 236 238 238 240
195 196 198 201 204 205 207 210 211 212 214 215 217 219 222 226 229 233 237 239 238 235 231 229 229 229 229 230 232 235 235 235 235 235 238 241 242 241 239 237 233 229 227 223 217 212 214 219 222 225 224 222 226 230 230 231 233 234 236 239 241 241 241
197 199 202 203 205 206 208 211 213 213 214 216 218 220 222 225 228 230 235 239 241 241 240 238 236 236 237 238 240 242 243 243 244 244 245 245 244 243 242 240 237 232 229 228 223 215 215 217 219 222 222 218 220 225 228 230 232 234 236 239 243 244 244
198 200 204 206 207 208 208 211 214 216 217 217 218 220 222 225 228 229 233 236 239 242 244 244 244 244 245 245 246 247 247 247 248 249 250 249 247 245 243 241 241 238 233 232 230 223 220 221 219 221 224 223 222 223 226 228 231 234 236 239 243 245 245
199 201 203 207 209 210 210 212 215 218 219 219 219 220 222 225 228 230 232 235 239 241 244 247 247 248 248 249 249 249 249 249 249 249 250 250 249 246 242 239 238 239 237 237 236 231 227 228 228 227 228 228 227 224 223 225 229 233 236 240 245 247 245
201 203 203 205 208 211 211 212 215 218 221 222 221 222 223 224 227 230 232 235 239 242 244 246 247 247 248 248 249 249 248 248 247 247 248 247 246 244 241 238 235 235 236 238 239 236 231 230 233 233 233 232 230 226 224 227 231 234 235 237 240 241 239
202 205 206 207 208 210 212 214 216 218 221 223 224 223 224 225 227 230 232 234 237 240 242 243 245 246 246 245 246 248 247 246 245 244 243 243 242 240 238 236 234 234 235 237 238 238 235 231 231 234 234 234 232 228 224 226 232 238 238 236 238 239 238
208 209 211 213 213 212 212 214 216 219 220 223 224 225 226 227 228 230 232 232 234 236 238 239 241 243 244 243 244 245 245 245 244 242 240 240 239 236 234 233 232 232 234 235 235 235 235 232 229 230 232 233 233 230 226 225 229 236 238 238 241 240 235
220 220 217 216 216 216 215 214 216 219 221 223 224 226 227 228 229 230 232 233 234 234 235 236 237 239 241 240 240 241 242 244 244 243 240 238 236 234 232 231 231 231 232 233 233 232 232 231 228 227 229 231 232 233 233 231 231 235 239 241 244 239 233
230 232 227 220 217 216 216 216 216 218 221 222 224 227 228 228 229 230 232 234 236 237 237 236 236 238 239 238 238 239 240 242 243 243 242 239 236 235 234 234 234 235 235 235 235 234 233 232 230 228 228 230 232 233 234 232 230 234 239 241 241 239 237
237 238 237 233 226 219 216 217 216 216 218 220 222 226 229 229 229 229 230 233 236 238 240 240 240 240 240 239 239 239 240 241 242 243 244 242 240 238 238 238 236 236 237 237 236 236 236 235 234 233 232 232 233 234 234 232 230 232 236 238 239 238 236
238 241 241 240 236 227 222 221 219 217 218 220 222 225 229 231 231 231 231 232 234 236 239 240 241 241 241 240 239 239 240 241 242 243 245 246 243 240 240 240 239 237 236 236 237 236 237 236 236 237 236 236 235 236 236 235 234 234 236 238 239 238 234
235 240 243 242 241 234 228 226 225 222 220 221 223 227 231 234 235 235 234 234 234 235 237 239 241 242 242 243 242 241 241 242 243 244 245 245 244 241 240 240 241 240 238 238 238 238 238 238 238 238 238 237 237 237 238 238 238 238 239 239 237 236 234
233 237 242 244 245 244 238 232 229 226 223 221 223 228 233 236 238 237 237 236 234 234 235 237 239 240 242 243 244 244 244 245 245 245 244 244 243 242 241 241 241 240 239 238 239 239 239 240 240 240 240 239 239 239 239 239 239 240 239 238 235 235 235
233 236 239 242 245 248 247 243 237 230 225 223 225 227 230 233 236 237 236 236 236 234 234 234 235 236 238 239 240 241 243 244 245 244 242 241 241 241 240 240 239 238 236 235 236 237 237 238 239 240 240 240 240 240 240 240 239 239 238 237 235 234 235
235 237 239 241 243 246 248 249 247 242 234 227 224 225 227 229 233 235 235 235 235 235 235 235 234 234 235 236 235 235 237 238 239 240 241 240 240 239 238 236 235 233 233 234 236 237 237 237 237 238 239 240 240 240 240 240 239 239 238 237 236 236 236
239 241 242 244 245 246 247 249 251 250 246 238 230 227 228 229 231 233 234 233 232 233 234 235 235 236 237 237 236 236 236 235 236 238 241 242 241 241 240 237 234 232 234 237 240 241 241 241 240 240 239 239 239 239 239 239 240 240 240 239 239 238 237
249 250 250 249 250 251 251 253 253 253 252 248 241 234 230 229 230 232 232 232 231 231 232 233 235 237 238 238 238 238 238 239 239 240 243 245 245 245 244 243 240 238 239 242 244 246 246 246 245 244 242 240 238 238 238 239 239 240 241 241 241 240 239
256 257 257 257 256 255 255 256 257 256 256 256 251 244 238 235 233 233 233 233 233 232 231 232 234 237 238 238 238 237 238 240 241 242 245 248 249 249 249 248 246 244 243 244 246 246 246 247 246 245 243 241 239 237 236 237 238 239 241 242 242 242 242
265 264 262 261 260 260 259 258 258 258 259 259 257 254 250 245 241 239 237 236 236 236 235 235 237 239 240 240 240 239 239 241 242 242 244 246 249 250 250 249 248 247 245 245 245 245 245 245 244 242 241 240 240 239 238 236 237 238 240 241 242 243 243
273 270 268 265 263 263 263 261 260 259 259 259 259 258 257 254 251 247 243 241 240 241 240 240 242 244 244 243 243 242 242 243 245 246 247 246 246 247 248 246 245 245 245 244 243 242 243 243 243 241 240 239 239 239 239 238 237 237 238 240 242 243 244
276 273 272 270 267 265 264 264 263 261 259 258 258 257 257 256 255 252 249 246 244 243 242 242 243 245 246 245 244 244 244 245 245 246 247 248 246 247 249 247 242 239 240 240 240 239 240 240 241 241 240 238 237 237 238 239 239 239 239 239 241 242 244
285 281 277 273 270 268 266 265 264 263 261 259 258 256 256 255 254 252 251 249 247 245 244 242 242 244 245 245 244 243 243 244 245 244 246 248 249 250 253 251 244 239 237 237 238 238 239 239 240 240 241 239 237 237 237 238 239 241 241 242 242 242 243
289 287 283 279 276 272 269 267 265 264 263 261 259 258 256 255 253 251 249 248 247 246 245 243 243 244 246 246 245 243 243 244 245 245 245 248 249 249 250 250 246 241 238 238 238 238 238 238 239 240 240 240 239 239 239 240 241 242 243 244 245 245 244
290 289 287 285 281 277 273 270 267 264 263 261 260 259 257 255 254 251 249 248 247 246 246 245 245 245 245 245 245 244 244 245 245 245 245 244 244 243 243 244 243 240 237 237 238 237 237 237 238 238 239 240 240 240 241 241 242 242 243 244 245 245 246
289 289 288 286 284 281 277 274 270 267 263 261 259 257 256 256 255 253 251 248 247 245 245 244 245 246 246 246 246 245 245 245 245 244 243 242 240 238 237 238 241 242 239 238 238 238 239 239 240 240 241 242 243 244 244 244 244 243 243 244 245 245 246
289 288 288 287 286 284 281 278 275 271 267 263 260 257 255 254 254 253 252 250 248 247 245 244 244 244 245 246 246 246 246 246 245 243 241 239 237 234 233 236 244 249 247 242 240 240 241 242 242 242 243 244 245 246 246 246 245 245 244 244 245 245 246
288 288 287 287 286 285 284 282 279 275 272 268 264 260 257 254 253 252 251 251 250 249 248 246 245 244 244 244 245 246 246 247 246 244 242 239 237 235 236 242 249 252 251 247 244 242 242 242 242 242 243 243 244 244 245 246 246 246 245 245 245 245 246
Height
5827 5831 5833 5836 5838 5841 5844 5845 5847 5851 5856 5859 5861 5864 5867 5869 5870 5870 5872 5877 5881 5882 5882 5884 5886 5888 5890 5891 5892 5893 5894 5895 5895 5896 5900 5903 5907 5909 5912 5913 5915 5917 5918 5920 5922 5923 5925 5927 5927 5928 5929 5931 5932 5933 5935 5936 5938 5939 5939 5940 5941 5942 5943
5825 5828 5831 5833 5836 5839 5841 5844 5847 5851 5854 5855 5858 5861 5864 5866 5867 5868 5871 5875 5878 5879 5880 5883 5885 5888 5889 5890 5892 5893 5895 5896 5895 5896 5899 5902 5904 5907 5909 5911 5913 5914 5916 5918 5920 5922 5923 5924 5925 5926 5927 5929 5931 5932 5933 5935 5937 5937 5938 5938 5939 5941 5942
5821 5825 5828 5830 5833 5836 5839 5842 5846 5848 5850 5852 5855 5858 5860 5863 5865 5867 5871 5874 5876 5877 5879 5882 5885 5887 5889 5890 5892 5893 5895 5896 5895 5896 5898 5900 5902 5904 5906 5908 5910 5912 5913 5916 5919 5920 5921 5922 5923 5924 5925 5927 5929 5931 5933 5935 5936 5937 5938 5939 5940 5941 5943
5819 5822 5825 5827 5830 5833 5836 5839 5842 5845 5848 5851 5854 5857 5859 5861 5863 5867 5870 5873 5875 5877 5879 5881 5884 5887 5888 5890 5891 5893 5894 5895 5894 5894 5895 5897 5899 5902 5903 5905 5908 5909 5911 5913 5916 5918 5920 5921 5922 5923 5925 5926 5929 5931 5933 5934 5935 5936 5937 5939 5940 5942 5943
5816 5819 5822 5825 5829 5832 5834 5836 5839 5842 5846 5849 5852 5855 5857 5860 5862 5866 5869 5872 5874 5876 5878 5881 5884 5886 5887 5889 5891 5892 5893 5893 5893 5894 5894 5895 5897 5899 5901 5903 5905 5907 5909 5911 5914 5916 5918 5920 5922 5924 5925 5926 5928 5931 5932 5932 5933 5934 5935 5937 5939 5940 5941
5814 5817 5820 5824 5827 5831 5833 5835 5838 5841 5844 5847 5849 5851 5854 5857 5861 5864 5867 5870 5874 5876 5877 5881 5883 5885 5887 5888 5890 5891 5892 5892 5893 5893 5894 5895 5896 5897 5899 5901 5903 5905 5906 5909 5912 5914 5917 5919 5922 5923 5924 5926 5928 5929 5930 5930 5931 5932 5934 5935 5937 5938 5939
5812 5815 5818 5822 5825 5828 5831 5834 5837 5839 5842 5845 5847 5849 5853 5856 5859 5862 5865 5868 5871 5874 5876 5879 5882 5884 5886 5887 5889 5890 5890 5891 5892 5893 5894 5895 5896 5896 5898 5900 5901 5902 5904 5907 5910 5914 5917 5919 5920 5922 5923 5924 5926 5927 5927 5928 5929 5930 5932 5934 5934 5936 5937
5811 5813 5816 5819 5823 5826 5829 5831 5834 5837 5840 5843 5845 5848 5851 5854 5857 5860 5863 5865 5869 5872 5874 5877 5880 5882 5884 5886 5888 5888 5889 5890 5891 5892 5894 5895 5896 5896 5897 5899 5900 5901 5903 5906 5909 5913 5916 5918 5919 5919 5919 5921 5923 5925 5926 5927 5928 5929 5930 5931 5932 5933 5934
5808 5810 5814 5817 5821 5824 5827 5830 5832 5835 5838 5841 5843 5846 5849 5852 5854 5857 5860 5863 5866 5870 5873 5875 5878 5880 5882 5884 5886 5887 5888 5889 5890 5892 5893 5895 5896 5896 5897 5898 5900 5901 5903 5905 5908 5911 5913 5914 5915 5915 5916 5918 5920 5923 5925 5926 5926 5927 5928 5929 5930 5931 5932
5806 5808 5811 5815 5818 5821 5825 5827 5830 5833 5836 5838 5841 5844 5846 5849 5852 5854 5857 5860 5863 5867 5870 5873 5876 5878 5881 5883 5884 5886 5887 5889 5890 5891 5893 5894 5895 5896 5897 5898 5900 5901 5903 5905 5907 5908 5910 5911 5911 5911 5913 5917 5919 5921 5923 5923 5923 5925 5926 5927 5928 5929 5930
5805 5808 5810 5812 5815 5819 5822 5825 5828 5830 5833 5836 5839 5841 5844 5847 5850 5853 5855 5858 5861 5864 5867 5871 5873 5876 5879 5881 5882 5884 5886 5887 5889 5890 5892 5893 5894 5895 5896 5898 5899 5900 5902 5903 5905 5906 5907 5908 5908 5909 5913 5916 5917 5918 5919 5920 5921 5922 5924 5924 5925 5926 5928
5804 5807 5809 5811 5814 5817 5820 5823 5826 5828 5831 5834 5837 5840 5842 5845 5848 5851 5853 5856 5859 5862 5865 5868 5871 5873 5876 5878 5880 5881 5883 5885 5886 5888 5890 5891 5893 5894 5895 5897 5897 5899 5900 5901 5903 5904 5905 5906 5907 5909 5912 5914 5915 5915 5915 5916 5918 5920 5921 5922 5922 5923 5924
5801 5805 5807 5809 5812 5815 5819 5822 5824 5826 5829 5832 5834 5838 5840 5842 5845 5848 5851 5853 5856 5859 5862 5865 5868 5870 5872 5874 5876 5878 5880 5882 5883 5885 5887 5888 5890 5892 5894 5895 5896 5897 5898 5899 5900 5902 5903 5904 5905 5907 5909 5911 5911 5912 5913 5914 5916 5917 5918 5919 5919 5920 5921
5799 5802 5805 5808 5811 5814 5817 5820 5822 5825 5827 5829 5832 5835 5838 5840 5842 5845 5848 5851 5854 5856 5859 5862 5865 5867 5869 5871 5873 5875 5877 5879 5880 5882 5883 5885 5887 5889 5891 5893 5894 5895 5896 5897 5898 5899 5900 5901 5903 5905 5907 5908 5908 5910 5912 5913 5913 5914 5915 5917 5917 5917 5918
5797 5800 5803 5806 5809 5813 5815 5818 5820 5823 5825 5827 5830 5833 5835 5837 5840 5842 5846 5849 5851 5854 5857 5860 5862 5864 5866 5868 5870 5872 5874 5876 5877 5879 5880 5882 5883 5885 5887 5889 5891 5893 5894 5895 5895 5897 5898 5900 5901 5902 5904 5905 5907 5909 5911 5911 5911 5911 5913 5914 5913 5914 5915
5795 5798 5802 5804 5807 5811 5814 5816 5819 5821 5823 5825 5828 5830 5833 5835 5837 5840 5843 5846 5849 5852 5855 5857 5859 5862 5864 5866 5868 5870 5871 5872 5874 5876 5877 5879 5881 5882 5884 5886 5888 5890 5891 5892 5893 5894 5896 5898 5899 5900 5901 5903 5905 5908 5910 5910 5910 5910 5911 5912 5911 5912 5913
5794 5797 5799 5802 5806 5809 5811 5814 5816 5818 5820 5823 5825 5828 5830 5833 5835 5838 5840 5843 5845 5848 5852 5855 5857 5859 5862 5864 5866 5867 5868 5869 5871 5873 5875 5876 5878 5880 5882 5883 5885 5886 5888 5889 5891 5892 5894 5896 5898 5899 5899 5900 5902 5904 5906 5908 5908 5908 5909 5909 5909 5910 5911
5792 5794 5797 5801 5804 5806 5808 5811 5814 5816 5818 5821 5822 5825 5827 5830 5832 5835 5837 5839 5841 5844 5848 5851 5854 5856 5859 5861 5862 5863 5865 5866 5868 5870 5872 5874 5876 5878 5879 5881 5882 5884 5885 5887 5888 5889 5891 5894 5895 5897 5897 5897 5898 5900 5901 5904 5905 5905 5906 5907 5907 5907 5908
5790 5792 5795 5798 5800 5802 5804 5808 5810 5813 5815 5818 5820 5822 5824 5826 5828 5831 5834 5836 5839 5841 5844 5847 5850 5852 5854 5857 5858 5860 5862 5863 5865 5867 5869 5871 5873 5875 5876 5878 5879 5881 5883 5884 5885 5886 5888 5890 5892 5894 5894 5895 5896 5897 5898 5900 5902 5903 5904 5904 5905 5905 5906
5788 5790 5792 5795 5797 5799 5801 5803 5806 5809 5811 5814 5817 5819 5821 5823 5825 5828 5831 5833 5836 5838 5841 5843 5846 5848 5851 5853 5855 5857 5859 5860 5862 5864 5866 5868 5870 5871 5872 5874 5876 5878 5879 5881 5882 5883 5885 5887 5889 5890 5891 5892 5893 5894 5895 5896 5898 5899 5901 5902 5903 5903 5905
5787 5789 5790 5792 5794 5796 5797 5800 5803 5805 5808 5811 5814 5816 5818 5820 5823 5826 5828 5830 5833 5835 5837 5839 5842 5844 5847 5849 5852 5854 5856 5857 5859 5861 5863 5864 5866 5867 5868 5870 5872 5874 5876 5877 5879 5880 5882 5883 5885 5887 5888 5889 5890 5890 5891 5892 5894 5895 5897 5898 5900 5901 5903
5785 5787 5788 5790 5792 5793 5795 5797 5800 5802 5805 5808 5810 5813 5815 5817 5820 5823 5826 5828 5829 5831 5834 5836 5838 5840 5843 5846 5848 5851 5853 5854 5855 5857 5859 5860 5862 5863 5864 5866 5868 5869 5871 5873 5875 5877 5878 5879 5881 5883 5884 5885 5886 5887 5888 5889 5890 5892 5893 5895 5896 5898 5900
5784 5785 5787 5788 5790 5792 5793 5795 5797 5799 5802 5805 5808 5810 5812 5813 5816 5818 5821 5823 5825 5828 5830 5832 5834 5836 5839 5842 5844 5846 5848 5849 5851 5853 5854 5855 5858 5859 5860 5862 5863 5865 5866 5868 5870 5872 5874 5876 5877 5879 5881 5882 5883 5884 5884 5886 5887 5888 5890 5891 5893 5895 5896
5781 5783 5785 5786 5788 5789 5791 5793 5795 5797 5799 5802 5805 5806 5807 5809 5811 5813 5815 5818 5820 5823 5825 5827 5830 5832 5834 5836 5838 5841 5843 5844 5845 5847 5848 5850 5852 5854 5856 5858 5859 5860 5862 5863 5865 5867 5869 5871 5873 5875 5877 5878 5879 5880 5881 5882 5884 5885 5886 5888 5890 5892 5893
5779 5781 5782 5784 5786 5787 5789 5791 5792 5794 5797 5799 5800 5801 5803 5806 5807 5809 5811 5813 5815 5818 5820 5823 5825 5826 5827 5830 5832 5834 5836 5837 5838 5840 5842 5844 5847 5849 5851 5853 5854 5855 5857 5858 5860 5862 5864 5866 5869 5871 5872 5874 5875 5876 5877 5878 5879 5881 5882 5884 5886 5888 5890
5777 5779 5780 5781 5783 5784 5786 5787 5788 5791 5793 5794 5795 5798 5801 5802 5803 5805 5807 5809 5811 5813 5816 5818 5820 5821 5823 5825 5827 5828 5830 5831 5832 5834 5836 5839 5841 5844 5846 5848 5850 5851 5852 5853 5855 5856 5858 5860 5863 5865 5867 5869 5871 5872 5873 5874 5875 5876 5878 5880 5882 5883 5885
5776 5777 5778 5779 5780 5781 5782 5783 5784 5786 5787 5788 5791 5795 5797 5798 5799 5801 5803 5804 5806 5809 5811 5813 5815 5817 5818 5820 5822 5824 5825 5826 5827 5828 5830 5833 5835 5838 5841 5843 5845 5846 5847 5848 5850 5851 5853 5855 5857 5859 5861 5863 5865 5867 5868 5870 5871 5872 5873 5875 5877 5879 5881
5775 5775 5776 5777 5777 5778 5779 5779 5780 5781 5782 5784 5787 5790 5792 5793 5795 5797 5799 5800 5802 5804 5806 5808 5810 5812 5813 5814 5816 5818 5820 5821 5822 5823 5825 5827 5829 5832 5834 5837 5839 5841 5842 5843 5844 5846 5848 5849 5851 5853 5855 5857 5859 5861 5863 5865 5866 5868 5869 5870 5872 5874 5875
5773 5774 5774 5775 5775 5775 5776 5776 5777 5778 5779 5780 5782 5784 5786 5788 5790 5792 5794 5796 5797 5799 5802 5803 5805 5806 5807 5809 5811 5813 5815 5816 5817 5818 5819 5821 5823 5825 5828 5830 5831 5834 5835 5837 5838 5840 5842 5843 5845 5847 5849 5851 5853 5855 5858 5860 5861 5863 5864 5866 5867 5869 5871
5771 5772 5772 5773 5773 5773 5773 5773 5774 5775 5776 5777 5778 5779 5780 5782 5784 5786 5788 5790 5792 5794 5796 5798 5799 5800 5801 5803 5805 5807 5809 5810 5812 5813 5814 5815 5817 5819 5820 5823 5825 5827 5828 5830 5832 5834 5835 5837 5839 5842 5844 5846 5848 5849 5852 5854 5856 5858 5859 5861 5862 5864 5865
5769 5770 5770 5770 5770 5771 5770 5770 5771 5771 5772 5773 5774 5775 5776 5777 5779 5780 5782 5784 5786 5788 5790 5792 5793 5793 5794 5796 5799 5802 5803 5804 5805 5806 5808 5809 5811 5813 5814 5816 5818 5820 5822 5824 5825 5827 5829 5831 5833 5836 5838 5840 5842 5844 5846 5848 5850 5852 5854 5855 5857 5858 5860
5766 5767 5768 5768 5768 5768 5768 5767 5767 5767 5768 5769 5769 5770 5771 5772 5774 5775 5777 5778 5780 5781 5783 5785 5786 5786 5787 5789 5793 5795 5796 5796 5797 5799 5801 5803 5804 5806 5808 5810 5812 5814 5816 5817 5819 5820 5822 5824 5827 5830 5832 5834 5837 5839 5840 5842 5844 5846 5848 5849 5851 5853 5854
5763 5763 5764 5764 5764 5764 5764 5764 5764 5764 5764 5764 5765 5766 5767 5767 5768 5770 5771 5772 5773 5775 5777 5779 5780 5781 5782 5784 5786 5787 5788 5789 5791 5794 5797 5798 5798 5798 5799 5801 5804 5807 5809 5811 5812 5814 5816 5818 5820 5823 5825 5828 5830 5832 5834 5836 5838 5840 5842 5843 5845 5847 5848
5759 5759 5759 5760 5760 5760 5760 5760 5760 5760 5760 5760 5760 5760 5761 5762 5763 5764 5765 5766 5767 5769 5770 5772 5773 5775 5776 5777 5778 5779 5781 5782 5785 5788 5791 5792 5792 5791 5791 5792 5795 5798 5800 5802 5805 5807 5809 5811 5814 5816 5818 5820 5823 5825 5828 5829 5831 5833 5835 5836 5838 5840 5841
5756 5755 5755 5755 5755 5755 5755 5754 5754 5754 5755 5755 5755 5755 5755 5756 5757 5758 5759 5760 5761 5762 5764 5765 5767 5768 5768 5769 5770 5772 5774 5775 5778 5782 5785 5785 5785 5785 5786 5787 5788 5789 5791 5793 5796 5800 5803 5805 5807 5809 5811 5814 5816 5819 5821 5823 5824 5826 5827 5829 5831 5832 5834
5752 5751 5750 5750 5750 5749 5749 5749 5749 5749 5749 5749 5749 5749 5750 5750 5751 5752 5753 5754 5755 5756 5757 5759 5760 5760 5761 5762 5764 5765 5766 5768 5771 5774 5776 5778 5779 5780 5781 5782 5783 5783 5785 5787 5789 5792 5795 5798 5800 5802 5805 5807 5809 5812 5814 5816 5817 5819 5820 5822 5823 5825 5827
5747 5747 5746 5746 5745 5744 5744 5744 5743 5743 5743 5743 5743 5744 5744 5744 5745 5745 5746 5747 5748 5750 5751 5752 5753 5754 5755 5756 5757 5758 5759 5761 5763 5765 5768 5771 5772 5774 5775 5775 5776 5777 5779 5781 5783 5785 5787 5789 5791 5794 5797 5799 5802 5804 5807 5809 5810 5812 5813 5815 5816 5818 5820